Overview Statistics Trail Chart Weather Telemetry Raw packets
 

This is the latest recevied weather packets stored in our database for station/object IQ5VK-13. If no packets are shown the sender has not sent any weather packets the latest 10 day(s).

<< 10 11 12 13 14 15 16 >>
Time Temp. Humidity Pressure Rain* Wind** Luminosity Snow
1788169366 24.44° C 65% 1021 hPa - - - -
1788168168 24.44° C 66% 1021.1 hPa - - - -
1788166965 23.89° C 69% 1021 hPa - - - -
1788165764 23.89° C 71% 1021 hPa - - - -
1788164564 22.22° C 79% 1021.1 hPa - - - -
1788163364 22.22° C 86% 1020.8 hPa - - - -
1788162163 20.56° C 90% 1020.9 hPa - - - -
1788159766 20.56° C 87% 1020.6 hPa - - - -
1788158564 19.44° C 92% 1020.5 hPa - - - -
1788157361 18.89° C 93% 1020.5 hPa - - - -
1788154967 18.89° C 94% 1020.3 hPa - - - -
1788153766 18.33° C 94% 1020.1 hPa - - - -
1788152566 18.33° C 94% 1019.9 hPa - - - -
1788151377 18.33° C 94% 1019.8 hPa - - - -
1788150165 18.33° C 94% 1019.9 hPa - - - -
1788148965 18.33° C 94% 1019.7 hPa - - - -
1788147765 18.33° C 94% 1019.9 hPa - - - -
1788146598 18.33° C 94% 1019.8 hPa - - - -
1788146564 18.33° C 94% 1019.8 hPa - - - -
1788145364 18.33° C 94% 1019.6 hPa - - - -
1788144164 18.33° C 93% 1019.7 hPa - - - -
1788142964 18.33° C 94% 1019.6 hPa - - - -
1788141766 18.33° C 93% 1019.6 hPa - - - -
1788140563 18.33° C 93% 1019.4 hPa - - - -
1788139365 18.33° C 93% 1019.9 hPa - - - -

* Rain since midnight (hover to see other rain measurements)
** Current wind speed in m/s (hover to see current wind gust speed)